Mackall AAF, NC

7:46 PM EDT on July 21, 2017 (GMT -0400)
Mackall Army Air Field

Weather History for KHFF - November, 2012

Change the Weather History Date:

Saturday, November 3, 2012

  Actual Average Record
Temperature  
Mean Temperature 46 °F -  
Max Temperature 64 °F 68 °F 81 °F (2016)
Min Temperature 29 °F 45 °F 26 °F (2006)
Degree Days  
Heating Degree Days 18    
Moisture  
Dew Point 33 °F    
Average Humidity 70    
Maximum Humidity 98    
Minimum Humidity 27    
Precipitation  
Precipitation 0.00 in - - ()
Sea Level Pressure  
Sea Level Pressure 30.07 in    
Wind  
Wind Speed 3 mph (NW)    
Max Wind Speed 9 mph    
Max Gust Speed 15 mph    
Visibility 10 miles    
Events      
Averages and records for this station are not official NWS values.
T = Trace of Precipitation, MM = Missing Value Source: NWS Daily Summary

Daily Weather History Graph

Daily Weather History Graph

Search for Another Location

Airport or City:

Trip Planner

Search our weather history database for the weather conditions in past years. The results will help you decide how hot, cold, wet, or windy it might be!

Date:

Astronomy

Nov. 03, 2012 Rise Set
Actual Time 7:41 AM EDT 6:21 PM EDT
Civil Twilight 7:15 AM EDT 6:47 PM EDT
Nautical Twilight 6:45 AM EDT 7:17 PM EDT
Astronomical Twilight 6:15 AM EDT 7:47 PM EDT
Moon 10:04 PM EDT (11/3) 11:40 AM EDT (11/3)
Length of Visible Light 11h 32m
Length of Day
10h 39m
Waning Gibbous, 80% of the Moon is Illuminated
Nov 3
Waning Gibbous
Nov 6
Last Quarter
Nov 13
New
Nov 20
First Quarter
Nov 28
Full

Hourly Weather History & Observations

Time (EDT) Temp. Windchill Dew Point Humidity Pressure Visibility Wind Dir Wind Speed Gust Speed Precip Events Conditions
12:55 AM 35.6 °F 32.8 °F 33.8 °F 93% 30.01 in 10.0 mi NNW 3.5 mph - N/A   Clear
1:55 AM 33.8 °F 30.8 °F 33.1 °F 97% 30.01 in 9.0 mi North 3.5 mph - N/A   Clear
2:55 AM 32.5 °F - 31.6 °F 96% 30.01 in 10.0 mi North - - N/A   Clear
3:55 AM 31.6 °F 27.0 °F 30.9 °F 97% 30.02 in 8.0 mi North 4.6 mph - N/A   Clear
4:55 AM 31.5 °F - 30.6 °F 96% 30.03 in 10.0 mi Calm Calm - N/A   Clear
5:55 AM 29.8 °F - 29.3 °F 98% 30.06 in 10.0 mi NW 2.3 mph - N/A   Clear
6:55 AM 29.5 °F - 28.2 °F 95% 30.09 in 9.0 mi North 2.3 mph - N/A   Clear
7:55 AM 30.2 °F - 29.3 °F 96% 30.10 in 10.0 mi NNW 1.2 mph - N/A   Clear
8:55 AM 37.4 °F - 34.3 °F 89% 30.13 in 10.0 mi Variable 1.2 mph - N/A   Clear
9:55 AM 46.6 °F - 36.5 °F 68% 30.14 in 10.0 mi NNW 2.3 mph - N/A   Clear
10:55 AM 53.4 °F - 30.9 °F 42% 30.14 in 10.0 mi Variable 2.3 mph - N/A   Clear
11:55 AM 57.2 °F - 30.0 °F 36% 30.13 in 10.0 mi Variable 4.6 mph - N/A   Clear
12:55 PM 59.7 °F - 29.3 °F 32% 30.10 in 10.0 mi Variable 4.6 mph - N/A   Clear
1:55 PM 62.8 °F - 29.7 °F 29% 30.08 in 10.0 mi NW 9.2 mph 15.0 mph N/A   Clear
2:55 PM 63.9 °F - 29.7 °F 28% 30.06 in 10.0 mi Variable 5.8 mph - N/A   Clear
3:55 PM 64.4 °F - 29.8 °F 27% 30.06 in 10.0 mi West 6.9 mph - N/A   Clear
4:55 PM 63.9 °F - 31.3 °F 29% 30.05 in 10.0 mi WSW 6.9 mph - N/A   Clear
5:55 PM 61.5 °F - 31.8 °F 33% 30.05 in 10.0 mi West 2.3 mph - N/A   Clear
6:55 PM 51.8 °F - 40.1 °F 64% 30.05 in 10.0 mi SSE 1.2 mph - N/A   Clear
7:55 PM 47.1 °F - 38.5 °F 72% 30.06 in 10.0 mi SSE 1.2 mph - N/A   Clear
8:55 PM 44.8 °F - 39.6 °F 82% 30.06 in 10.0 mi Calm Calm - N/A   Clear
9:55 PM 41.5 °F - 38.3 °F 88% 30.07 in 10.0 mi NE 1.2 mph - N/A   Clear
10:55 PM 41.5 °F - 38.8 °F 90% 30.07 in 10.0 mi ENE 1.2 mph - N/A   Clear
11:55 PM 40.1 °F - 38.1 °F 93% 30.06 in 10.0 mi SSW 2.3 mph - N/A   Clear